[[{"header":{"parameterUnit":"m.s-1","parameterCategory":1,"la1":30.2991,"la2":30.254,"lo1":-89.0895,"lo2":-89.0444,"dy":0.0017,"dx":0.0017,"nx":28,"ny":28,"refTime":"2024-08-07T21:00:00:Z","depth":0,"parameterNumber":2,"parameterNumberName":"U-component_of_WINDS"},"data":[0,0,0,0,0,0,0,0,0,0,0,0,0,0,0,0,0,0,0,0,0,0,0,0,0,0,0,0,0,0,0,0,0,0,0,0,0,0,0,0,0,0,0,0,0,0,0,0,0,0,0,0,0,0,0,0,0,0,2.3783,2.3784,0,2.3865,2.3866,2.3867,2.3809,2.3807,2.3804,2.3802,2.3895,2.3899,2.3904,0,0,0,0,0,0,0,0,0,0,0,0,0,2.3589,2.3593,2.3783,2.3784,2.3785,2.3865,2.3866,2.3867,2.381,2.3806,2.3803,2.38,2.3893,2.3899,2.3905,0,0,0,0,0,0,0,0,0,0,0,0,0,2.3673,2.3594,2.3783,2.3766,2.3765,2.3865,2.3866,2.3867,2.381,2.3806,2.3802,2.3799,2.3891,2.3898,2.3906,2.4029,0,0,2.3928,2.3931,0,0,0,0,0,0,0,0,2.3668,2.368,2.3767,2.3767,2.3766,2.3823,2.3832,2.3922,2.3811,2.3793,2.3801,2.3797,2.3875,2.3883,2.3907,2.4033,2.4037,2.3929,2.3933,2.3936,2.3938,0,0,0,0,0,0,0,2.3662,2.3676,2.3816,2.3769,2.3768,2.3758,2.3766,2.3848,2.3855,2.3795,2.3791,2.3801,2.3874,2.39,2.3909,2.4039,2.3928,2.3935,2.394,2.3942,2.4277,2.4282,0,0,0,0,0,0,2.3656,2.3671,2.3813,2.3818,2.3706,2.3765,2.3773,2.3809,2.3854,2.3857,2.3804,2.3798,2.389,2.39,2.3912,2.4064,2.3936,2.3943,2.3947,2.4273,2.4278,2.4283,0,0,0,0,0,0,2.3652,2.3669,2.381,2.3744,2.3761,2.3772,2.3813,2.3812,2.3839,2.3861,2.3863,2.3829,2.3887,2.3902,2.4001,2.4066,2.3946,2.3953,2.4268,2.4275,2.4281,2.4365,0,0,0,0,0,0,2.3647,2.3668,2.3712,2.3745,2.3764,2.3894,2.3816,2.3817,2.3851,2.3843,2.3885,2.3888,2.3885,2.3991,2.4009,2.4074,2.3959,2.4262,2.4271,2.4279,2.4357,2.4374,2.4389,0,0,0,0,0,2.364,2.3733,2.3715,2.3732,2.3819,2.3898,2.3909,2.3901,2.3856,2.3903,2.3918,2.3887,2.4056,2.4001,2.4021,2.4089,2.4258,2.4268,2.4278,2.435,2.4371,2.4388,0,0,0,0,0,0,2.371,2.3737,2.3717,2.3822,2.3858,2.3888,2.3946,2.3923,2.3974,2.3965,2.3955,2.3966,2.4071,2.409,2.4029,2.4215,2.415,2.4165,2.4198,2.4218,2.4234,2.4228,2.3965,0,0,0,0,0,2.3737,2.3795,2.3817,2.3909,2.3928,2.3934,2.3968,2.3959,2.3996,2.4012,2.4034,2.4074,2.4137,2.4178,2.4237,2.4359,2.4371,2.4417,2.4433,2.4446,2.4459,2.4531,2.4553,2.4316,2.4316,2.4316,0,0,2.3795,2.3817,2.3854,2.3924,2.395,2.4015,2.3947,2.4017,2.4067,2.4023,2.4118,2.4137,2.4182,2.4295,2.4346,2.4314,2.4527,2.4459,2.4469,2.4475,2.4544,2.4566,2.4586,2.4323,2.4322,2.4321,0,0,2.3933,2.3954,2.4034,2.4063,2.4103,2.4107,2.4127,2.4161,2.4171,2.4266,2.4237,2.4298,2.4404,2.4439,2.4471,2.4628,2.4604,2.4648,2.4732,2.4802,2.4821,2.4837,2.4897,2.4918,2.466,2.4661,2.4661,0,2.4,2.4093,2.4079,2.4153,2.4187,2.4149,2.4234,2.4263,2.4322,2.4348,2.4311,2.4447,2.4475,2.4598,2.4636,2.4662,2.4688,2.4643,2.4818,2.4835,2.485,2.4908,2.493,2.4666,2.4665,2.4665,2.4664,0,2.4176,2.4242,2.4302,2.4359,2.4399,2.4478,2.4481,2.4525,2.4513,2.4523,2.4624,2.4656,2.4723,2.4751,2.4741,2.4875,2.4854,2.4818,2.4754,2.4878,2.4932,2.4954,2.4674,2.4672,2.467,2.4669,0,0,2.4358,2.4408,2.4431,2.4459,2.4503,2.4555,2.4635,2.4698,2.4738,2.4781,2.4851,2.4944,2.4913,2.4949,2.4943,2.5004,2.5132,2.4961,2.4962,2.4995,2.5288,2.5316,2.5341,2.5116,2.512,2.5123,2.5285,0,2.4502,2.4637,2.463,2.4759,2.4822,2.479,2.486,2.4898,2.491,2.497,2.4985,2.5052,2.5003,2.5025,2.5084,2.5104,2.5191,2.5092,2.5186,2.5189,2.5177,2.5369,2.5398,2.5549,2.5306,2.5309,2.5312,0,2.4686,2.4735,2.487,2.4909,2.4935,2.4998,2.5058,2.5113,2.5157,2.5163,2.5205,2.5191,2.5277,2.521,2.5332,2.5264,2.5303,2.5319,2.5325,2.5335,2.5259,2.5387,2.5596,2.562,2.5344,2.5341,2.5339,0,2.481,2.491,2.5004,2.5028,2.5075,2.5121,2.5144,2.5183,2.5223,2.5277,2.5304,2.5368,2.5404,2.5457,2.5462,2.5411,2.5587,2.5518,2.5598,2.5598,2.5637,2.5635,2.5858,2.5658,2.5658,2.5657,2.5657,0,2.4972,2.5057,2.5061,2.512,2.5216,2.5209,2.5306,2.5325,2.5361,2.5427,2.5403,2.5466,2.5468,2.5534,2.5539,2.5642,2.5658,2.5668,2.5669,2.5671,2.5671,2.5698,2.5689,2.5663,2.5662,2.5661,2.566,0,2.5127,2.5133,2.5235,2.5271,2.5283,2.5353,2.5386,2.5445,2.5456,2.5539,2.5559,2.5578,2.5655,2.5665,2.5755,2.5759,2.5884,2.5872,2.5868,2.5867,2.5947,2.5941,2.6198,2.6233,2.6007,2.6009,2.6011,0,2.5231,2.5296,2.534,2.538,2.5405,2.5471,2.5512,2.551,2.5554,2.5612,2.5665,2.5739,2.5798,2.5923,2.5948,2.6018,2.601,2.6096,2.6021,2.6023,2.6016,2.6013,2.6022,2.6111,2.6113,2.6115,2.6117,0,2.5416,2.5417,2.5475,2.5536,2.5585,2.5634,2.5679,2.5715,2.572,2.5772,2.5849,2.5895,2.5987,2.6063,2.6133,2.6161,2.6142,2.614,2.6163,2.6167,2.6163,2.617,2.5911,2.6134,2.6133,2.6131,2.613,2.613,2.5551,2.5609,2.565,2.5717,2.5751,2.5796,2.5853,2.5872,2.5935,2.6009,2.6005,2.6091,2.614,2.6231,2.6265,2.6336,2.6308,2.634,2.6349,2.6357,2.6367,2.615,2.6348,2.6348,2.6347,2.6347,2.6346,0,2.5738,2.5764,2.5825,2.589,2.5945,2.5919,2.597,2.6018,2.6093,2.6138,2.6197,2.6289,2.6364,2.6395,2.647,2.6521,2.6515,2.6541,2.6538,2.6546,2.6385,2.636,2.6545,2.6545,2.6545,2.6545,2.6545,2.6545,2.5842,2.594,2.5946,2.6063,2.6088,2.6171,2.6203,2.6246,2.6282,2.6384,2.6445,2.6464,2.6506,2.6584,2.6653,2.6661,2.6692,2.6723,2.6727,2.6577,2.6557,2.6538,2.6514,2.6728,2.6729,2.6883,2.6884,2.6885]},{"header":{"parameterUnit":"m.s-1","parameterCategory":1,"la1":30.2991,"la2":30.254,"lo1":-89.0895,"lo2":-89.0444,"dy":0.0017,"dx":0.0017,"nx":28,"ny":28,"refTime":"2024-08-07T21:00:00:Z","depth":0,"parameterNumber":3,"parameterNumberName":"V-component_of_WINDS"},"data":[0,0,0,0,0,0,0,0,0,0,0,0,0,0,0,0,0,0,0,0,0,0,0,0,0,0,0,0,0,0,0,0,0,0,0,0,0,0,0,0,0,0,0,0,0,0,0,0,0,0,0,0,0,0,0,0,0,0,0.362,0.3624,0,0.3987,0.3991,0.3995,0.4056,0.4053,0.4049,0.4046,0.4433,0.4446,0.4459,0,0,0,0,0,0,0,0,0,0,0,0,0,0.2982,0.2993,0.362,0.3624,0.3629,0.3986,0.3991,0.3996,0.4056,0.4052,0.4048,0.4045,0.4429,0.4445,0.4461,0,0,0,0,0,0,0,0,0,0,0,0,0,0.3295,0.2997,0.3619,0.3702,0.3713,0.3985,0.3991,0.3998,0.4057,0.4052,0.4047,0.4043,0.4424,0.4443,0.4463,0.4682,0,0,0.4524,0.4532,0,0,0,0,0,0,0,0,0.3277,0.3318,0.3685,0.3697,0.3709,0.397,0.3908,0.4228,0.4058,0.3927,0.4046,0.4041,0.4284,0.4315,0.4395,0.47,0.4717,0.4526,0.4538,0.4546,0.4552,0,0,0,0,0,0,0,0.3255,0.3303,0.3765,0.369,0.3705,0.3724,0.3763,0.3969,0.4128,0.3938,0.3943,0.3985,0.429,0.4375,0.4404,0.4723,0.4525,0.4543,0.4555,0.4563,0.5226,0.5232,0,0,0,0,0,0,0.3217,0.3284,0.3754,0.3776,0.3477,0.3739,0.3783,0.3892,0.4126,0.4157,0.3989,0.3986,0.4344,0.4381,0.4418,0.4691,0.4546,0.4565,0.4576,0.5221,0.5228,0.5234,0,0,0,0,0,0,0.3203,0.3258,0.3739,0.3532,0.3594,0.3755,0.3877,0.3901,0.3987,0.4164,0.4194,0.4046,0.4341,0.439,0.4615,0.4705,0.4574,0.4592,0.5214,0.5223,0.5231,0.5238,0,0,0,0,0,0,0.3185,0.3253,0.3336,0.3533,0.3605,0.3927,0.3882,0.3912,0.402,0.402,0.4226,0.4256,0.4341,0.4585,0.4635,0.473,0.4607,0.5207,0.5218,0.5228,0.523,0.5245,0.5258,0,0,0,0,0,0.3162,0.3326,0.334,0.3396,0.3712,0.3932,0.3974,0.4066,0.4027,0.4113,0.4227,0.425,0.4686,0.4608,0.4664,0.4767,0.5202,0.5215,0.5227,0.5224,0.5242,0.5258,0,0,0,0,0,0,0.314,0.3353,0.3371,0.3603,0.3748,0.3942,0.4054,0.4082,0.4245,0.4239,0.4349,0.4395,0.4615,0.4713,0.4622,0.4992,0.4942,0.4966,0.492,0.4939,0.4952,0.4926,0.4624,0,0,0,0,0,0.3161,0.3319,0.3498,0.3686,0.3757,0.3892,0.3992,0.4049,0.4206,0.4269,0.4399,0.4553,0.4726,0.4837,0.5005,0.5243,0.529,0.5342,0.5356,0.5366,0.5388,0.5522,0.5547,0.5276,0.5276,0.5275,0,0,0.3209,0.3345,0.3439,0.3685,0.3804,0.3968,0.3944,0.4119,0.4243,0.4297,0.4517,0.4617,0.4797,0.5029,0.5138,0.5118,0.5472,0.5383,0.539,0.5406,0.5538,0.5563,0.5586,0.5284,0.5283,0.5281,0,0,0.338,0.3497,0.3667,0.3785,0.3964,0.4053,0.4093,0.4282,0.4349,0.457,0.4614,0.4764,0.5058,0.5184,0.5286,0.5501,0.5529,0.5552,0.5628,0.5757,0.5778,0.5798,0.5877,0.5903,0.5572,0.5572,0.5572,0,0.3418,0.3663,0.3751,0.3924,0.4032,0.4082,0.4257,0.4369,0.4595,0.467,0.4643,0.5011,0.5136,0.5399,0.545,0.5531,0.5583,0.5532,0.5767,0.5788,0.5808,0.5884,0.5913,0.5574,0.5574,0.5574,0.5574,0,0.3702,0.3872,0.3987,0.42,0.4321,0.4493,0.461,0.4722,0.4768,0.4859,0.5084,0.5234,0.5433,0.5499,0.5548,0.577,0.5752,0.5744,0.5697,0.5834,0.5908,0.5937,0.5577,0.5576,0.5576,0.5575,0,0,0.3875,0.4129,0.4171,0.4268,0.4467,0.4602,0.4777,0.4967,0.5062,0.5216,0.5368,0.5613,0.5607,0.5723,0.5785,0.5898,0.606,0.5878,0.5884,0.5909,0.6316,0.6322,0.6354,0.6078,0.6084,0.6089,0.6301,0,0.4071,0.4381,0.4463,0.4728,0.4887,0.4936,0.5089,0.5229,0.5319,0.5469,0.5569,0.5742,0.572,0.579,0.5904,0.6016,0.6144,0.6002,0.6224,0.6231,0.618,0.6392,0.64,0.6594,0.6331,0.6335,0.6339,0,0.4343,0.4497,0.4776,0.4953,0.5023,0.5159,0.534,0.5481,0.5642,0.5699,0.5826,0.5878,0.6065,0.6003,0.6264,0.6165,0.626,0.6329,0.6339,0.6366,0.6296,0.6428,0.6658,0.6688,0.6385,0.6381,0.6378,0,0.4442,0.472,0.4923,0.5004,0.5216,0.531,0.5403,0.5559,0.5667,0.5826,0.5898,0.6078,0.6177,0.6316,0.6415,0.6361,0.6668,0.6615,0.6724,0.6722,0.679,0.6785,0.7041,0.6846,0.6845,0.6844,0.6844,0,0.4655,0.4825,0.497,0.5096,0.5287,0.5381,0.5569,0.5665,0.5802,0.5949,0.6002,0.614,0.626,0.6415,0.6493,0.6698,0.6742,0.6796,0.6816,0.6794,0.6787,0.686,0.6851,0.6852,0.6851,0.6849,0.6848,0,0.4801,0.4905,0.513,0.531,0.5359,0.5493,0.5649,0.5774,0.5862,0.6048,0.6097,0.6238,0.6422,0.6533,0.6768,0.682,0.7047,0.706,0.6992,0.7001,0.7105,0.7094,0.742,0.7468,0.7237,0.7239,0.7241,0,0.4932,0.5063,0.5255,0.5355,0.5448,0.5609,0.5719,0.5816,0.5929,0.612,0.6223,0.6408,0.6563,0.6855,0.6981,0.716,0.718,0.7281,0.7208,0.7181,0.7185,0.7177,0.7191,0.7295,0.7297,0.7299,0.73,0,0.5153,0.5197,0.5351,0.5524,0.5652,0.5794,0.5935,0.6014,0.6136,0.626,0.6446,0.6566,0.6802,0.6987,0.7176,0.7276,0.731,0.7321,0.7356,0.7337,0.7293,0.732,0.7029,0.7314,0.7313,0.7312,0.7311,0.7311,0.5298,0.5417,0.557,0.574,0.5855,0.5985,0.611,0.6213,0.6369,0.6566,0.6614,0.681,0.6968,0.7224,0.7327,0.7484,0.7469,0.7519,0.7533,0.7545,0.7548,0.7264,0.7519,0.7519,0.7518,0.7518,0.7518,0,0.5525,0.5624,0.5779,0.5972,0.6107,0.612,0.6276,0.6389,0.6559,0.6701,0.685,0.7064,0.7243,0.7381,0.7565,0.7664,0.7684,0.771,0.7705,0.7728,0.755,0.7503,0.769,0.769,0.769,0.769,0.769,0.769,0.5658,0.5859,0.5921,0.618,0.628,0.6469,0.6557,0.6678,0.6791,0.7027,0.7174,0.7261,0.7402,0.7596,0.7761,0.7797,0.7864,0.7887,0.7927,0.7759,0.7741,0.7723,0.7679,0.79,0.7901,0.8092,0.8094,0.8095]}]]